This is the latest recevied weather packets stored in our database for station/object KC0RPY. If no packets are shown the sender has not sent any weather packets the latest 10 day(s).
| Time | Temp. | Humidity | Pressure | Rain* | Wind** | Luminosity | Snow |
|---|---|---|---|---|---|---|---|
| 1777222663 | 22.78° C | 65% | 1010 hPa | 0 mm | - | 701 W/m² | - |
| 1777222360 | 22.78° C | 66% | 1010 hPa | 0 mm | - | 836 W/m² | - |
| 1777222059 | 22.78° C | 65% | 1009.7 hPa | 0 mm | - | 416 W/m² | - |
| 1777221755 | 23.33° C | 65% | 1010 hPa | 0 mm | - | 873 W/m² | - |
| 1777221451 | 22.78° C | 65% | 1010 hPa | 0 mm | - | 427 W/m² | - |
| 1777221149 | 22.78° C | 65% | 1009.7 hPa | 0 mm | - | 845 W/m² | - |
| 1777220844 | 23.33° C | 65% | 1010 hPa | 0 mm | - | 842 W/m² | - |
| 1777220540 | 22.78° C | 66% | 1010.4 hPa | 0 mm | - | 834 W/m² | - |
| 1777220236 | 22.22° C | 66% | 1010.7 hPa | 0 mm | - | 830 W/m² | - |
| 1777219931 | 22.22° C | 67% | 1010.4 hPa | 0 mm | - | 436 W/m² | - |
| 1777219629 | 22.22° C | 68% | 1010.4 hPa | 0 mm | - | 842 W/m² | - |
| 1777219326 | 21.67° C | 68% | 1010.7 hPa | 0 mm | - | 765 W/m² | - |
| 1777219021 | 21.67° C | 68% | 1010.4 hPa | 0 mm | - | 777 W/m² | - |
| 1777218717 | 21.67° C | 67% | 1010.4 hPa | 0 mm | - | 739 W/m² | - |
| 1777218413 | 21.67° C | 67% | 1010.7 hPa | 0 mm | - | 725 W/m² | - |
| 1777218109 | 21.67° C | 67% | 1010.4 hPa | 0 mm | - | 697 W/m² | - |
| 1777217805 | 21.11° C | 69% | 1010.7 hPa | 0 mm | - | 730 W/m² | - |
| 1777217501 | 21.11° C | 68% | 1010.7 hPa | 0 mm | - | 686 W/m² | - |
| 1777217197 | 21.67° C | 69% | 1010.7 hPa | 0 mm | - | 683 W/m² | - |
| 1777216894 | 21.11° C | 70% | 1011.1 hPa | 0 mm | - | 632 W/m² | - |
| 1777216590 | 20.56° C | 69% | 1011.1 hPa | 0 mm | - | 604 W/m² | - |
| 1777216286 | 21.11° C | 69% | 1011.1 hPa | 0 mm | - | 603 W/m² | - |
| 1777215985 | 20.56° C | 71% | 1011.1 hPa | 0 mm | - | 570 W/m² | - |
| 1777215681 | 20.56° C | 71% | 1010.7 hPa | 0 mm | - | 561 W/m² | - |
| 1777215381 | 20.56° C | 71% | 1011.1 hPa | 0 mm | - | 550 W/m² | - |
* Rain latest hour (hover to see other rain measurements)
** Current wind speed in m/s (hover to see current wind gust speed)